Stations météo

Publicité
Colmar, France (7197): Température de l'air & dewpoint: 19.03.2019 13:00:00 - 25.03.2019 13:00:00 (CET)Colmar, France (7197): Température de l'air 5cm: 19.03.2019 13:00:00 - 25.03.2019 13:00:00 (CET)Colmar, France (7197): Température de l'air -20cm & Température de l'air -100cm: 19.03.2019 13:00:00 - 25.03.2019 13:00:00 (CET)Colmar, France (7197): Vitesse du vent & gusts: 19.03.2019 13:00:00 - 25.03.2019 13:00:00 (CET)Colmar, France (7197): Direction du vent: 19.03.2019 13:00:00 - 25.03.2019 13:00:00 (CET)Colmar, France (7197): reduced air pressure: 19.03.2019 13:00:00 - 25.03.2019 13:00:00 (CET)Colmar, France (7197): visibility: 19.03.2019 13:00:00 - 25.03.2019 13:00:00 (CET)Colmar, France (7197): Ensoleillement: 19.03.2019 13:00:00 - 25.03.2019 13:00:00 (CET)Colmar, France (7197): Quantités de précipitations: 19.03.2019 13:00:00 - 25.03.2019 13:00:00 (CET)
Date & Time tt [°C] td [°C] tt 5cm [°C] tt -20cm [°C] tt -100cm [°C] ff [km/h] ff [knt] fx [km/h] fx [knt] dd ppp [hPa] vv [km] sd [min] rr [mm]
25.03.2019 13:00:00 - - - - - - - - - - - - - -
25.03.2019 12:00:00 9,8 -1,0 9,7 10,1 8,6 13 7 28 15 NNW 1025,2 20 0 0,0
25.03.2019 11:00:00 9,6 -2,7 10,4 10,0 8,6 13 7 26 14 NW 1025,1 20 0 0,0
25.03.2019 10:00:00 9,6 -0,9 10,2 9,9 8,6 15 8 22 12 NNW 1025,1 20 38 0,0
25.03.2019 09:00:00 9,3 -1,5 8,7 9,9 8,6 11 6 20 11 N 1024,9 20 60 0,0
25.03.2019 08:00:00 7,9 -1,4 4,1 10,1 8,6 5 3 10 5 N 1024,9 20 60 0,0
25.03.2019 07:00:00 5,5 -0,8 3,1 10,4 8,6 5 3 14 7 NNE 1024,9 20 14 0,0
25.03.2019 06:00:00 5,5 0,3 4,4 10,6 8,5 10 5 18 10 N 1024,5 20 0 0,0
25.03.2019 05:00:00 7,3 2,6 5,8 10,8 8,5 8 4 18 10 NNE 1023,9 19 0 0,0
25.03.2019 04:00:00 8,6 3,8 7,9 11,0 8,5 6 4 13 7 N 1023,7 13 0 0,0
25.03.2019 03:00:00 8,9 4,1 8,2 11,1 8,5 4 2 13 7 NE 1023,5 12 0 0,0
25.03.2019 02:00:00 9,6 4,2 8,4 11,3 8,4 8 4 17 9 NNE 1023,6 12 0 0,0
25.03.2019 01:00:00 9,1 4,1 7,2 11,6 8,5 4 2 14 8 NE 1023,6 10 0 0,0
25.03.2019 00:00:00 8,5 3,7 2,5 11,9 8,4 10 5 14 7 N 1023,9 9 0 0,0
24.03.2019 23:00:00 8,8 3,0 4,2 12,2 8,5 4 2 9 5 NE 1024,2 11 0 0,0
24.03.2019 22:00:00 11,1 3,9 9,3 12,4 8,4 6 4 13 7 NNE 1024,2 12 0 0,0
24.03.2019 21:00:00 12,4 4,1 11,5 12,6 8,4 7 4 19 10 NNE 1024,0 12 0 0,0
24.03.2019 20:00:00 12,5 4,0 11,4 12,8 8,4 10 5 18 10 NNE 1023,8 12 0 0,0
24.03.2019 19:00:00 13,8 5,2 12,6 12,9 8,4 9 5 23 12 NE 1023,1 11 9 0,0
24.03.2019 18:00:00 15,6 5,2 15,6 12,8 8,4 13 7 29 16 NE 1022,3 13 51 0,0
24.03.2019 17:00:00 17,2 5,5 18,8 12,5 8,4 13 7 26 14 NNE 1022,0 15 57 0,0
24.03.2019 16:00:00 18,1 4,6 23,1 12,0 8,4 10 5 17 9 ENE 1021,9 13 60 0,0
24.03.2019 15:00:00 17,9 4,8 23,5 11,4 8,4 6 3 16 8 ENE 1022,2 13 60 0,0
24.03.2019 14:00:00 17,3 4,9 21,4 10,6 8,4 6 3 16 8 ENE 1023,0 12 60 0,0
24.03.2019 13:00:00 15,4 5,6 20,7 9,9 8,3 5 3 11 6 WNW 1023,8 8 60 0,0
24.03.2019 12:00:00 14,1 5,4 16,6 9,3 8,3 6 3 16 9 NNE 1024,4 9 60 0,0
24.03.2019 11:00:00 11,8 5,2 13,6 8,9 8,3 8 4 16 8 NNW 1025,1 8 60 0,0
24.03.2019 10:00:00 9,9 4,9 10,6 8,6 8,3 3 2 11 6 N 1025,9 6 60 0,0
24.03.2019 09:00:00 8,0 4,8 5,4 8,7 8,3 4 2 7 4 N 1026,2 6 60 0,0
24.03.2019 08:00:00 3,9 3,5 -1,1 8,9 8,3 0 0 3 2 N 1026,7 2,6 36 0,0
24.03.2019 07:00:00 0,7 0,0 -2,6 9,2 8,3 3 1 5 3 SW 1026,9 2,1 11 0,0
24.03.2019 06:00:00 0,7 -0,3 -2,6 9,6 8,3 3 2 4 2 SSW 1026,9 1,9 0 0,0
24.03.2019 05:00:00 1,8 0,9 -1,9 9,9 8,2 0 0 4 2 N 1026,6 1,7 0 0,0
24.03.2019 04:00:00 2,8 1,2 -0,5 10,1 8,2 0 0 7 4 N 1026,4 2,3 0 0,0
24.03.2019 03:00:00 6,3 3,6 4,5 10,4 8,2 6 3 14 8 NE 1026,3 4,0 0 0,0
24.03.2019 02:00:00 7,7 3,9 6,2 10,7 8,2 8 4 18 10 NE 1026,4 4,8 0 0,0
24.03.2019 01:00:00 8,5 3,9 7,2 11,0 8,2 10 6 23 13 NNE 1026,5 6 0 0,0
24.03.2019 00:00:00 8,2 3,4 1,4 11,3 8,2 11 6 15 8 N 1026,9 11 0 0,0
23.03.2019 23:00:00 5,1 1,2 1,5 11,6 8,2 5 3 7 4 E 1027,1 14 0 0,0
23.03.2019 22:00:00 8,7 1,8 3,3 12,0 8,2 4 2 10 5 ENE 1027,1 16 0 0,0
23.03.2019 21:00:00 10,5 3,1 4,5 12,3 8,2 6 3 9 5 NNE 1027,1 16 0 0,0
23.03.2019 20:00:00 12,4 2,8 7,8 12,4 8,2 7 4 10 6 N 1026,8 18 0 0,0
23.03.2019 19:00:00 15,1 2,3 12,7 12,5 8,2 6 4 17 9 NE 1026,1 20 24 0,0
23.03.2019 18:00:00 18,1 2,0 18,4 12,4 8,1 10 5 19 10 NE 1025,5 20 60 0,0
23.03.2019 17:00:00 19,2 1,2 21,9 12,0 8,1 9 5 21 11 NE 1025,3 20 60 0,0
23.03.2019 16:00:00 20,0 2,3 23,8 11,5 8,1 9 5 19 11 NNE 1025,3 20 60 0,0
23.03.2019 15:00:00 19,8 1,7 24,1 10,7 8,1 9 5 19 10 N 1025,6 20 60 0,0
23.03.2019 14:00:00 19,0 1,0 24,3 9,9 8,1 8 4 21 11 N 1026,4 20 60 0,0
23.03.2019 13:00:00 18,3 0,9 22,1 9,1 8,1 6 3 19 10 N 1027,1 20 60 0,0
23.03.2019 12:00:00 17,3 1,7 20,7 8,4 8,1 9 5 14 8 ENE 1027,6 20 60 0,0
23.03.2019 11:00:00 16,0 2,7 17,4 7,8 8,1 3 2 12 7 WSW 1028,1 20 60 0,0
23.03.2019 10:00:00 13,4 2,3 12,0 7,5 8,1 5 3 13 7 SSW 1028,7 20 60 0,0
23.03.2019 09:00:00 10,1 2,7 7,1 7,5 8,1 10 5 17 9 SSW 1029,1 20 60 0,0
23.03.2019 08:00:00 6,6 1,9 0,7 7,7 8,1 8 5 16 9 S 1029,2 20 60 0,0
23.03.2019 07:00:00 2,5 0,1 -2,4 8,0 8,1 6 4 14 7 SSW 1029,4 20 10 0,0
23.03.2019 06:00:00 0,9 -0,1 -3,9 8,3 8,1 8 4 13 7 S 1029,4 19 0 0,0
23.03.2019 05:00:00 -1,3 -2,3 -3,7 8,7 8,1 4 2 6 3 S 1029,7 9 0 0,0
23.03.2019 04:00:00 -0,3 -1,7 -3,3 9,0 8,1 0 0 8 5 N 1029,7 17 0 0,0
23.03.2019 03:00:00 0,4 -1,4 -2,9 9,4 8,0 0 0 3 2 N 1029,7 16 0 0,0
23.03.2019 02:00:00 1,4 -0,8 -1,8 9,7 8,1 0 0 9 5 N 1029,6 19 0 0,0
23.03.2019 01:00:00 2,0 -0,8 -1,4 10,1 8,1 4 2 7 4 S 1029,3 20 0 0,0
23.03.2019 00:00:00 2,9 -0,7 -0,8 10,4 8,0 4 2 7 4 S 1029,2 20 0 0,0
22.03.2019 23:00:00 4,0 -1,0 0,7 10,8 8,0 4 2 5 3 S 1029,1 20 0 0,0
22.03.2019 22:00:00 5,2 -0,6 1,7 11,1 8,0 4 2 6 3 SSW 1028,9 20 0 0,0
22.03.2019 21:00:00 7,8 -1,2 3,0 11,4 8,0 0 0 2 1 N 1028,5 20 0 0,0
22.03.2019 20:00:00 9,7 -1,1 4,4 11,6 8,0 0 0 5 3 N 1028,2 20 0 0,0
22.03.2019 19:00:00 14,9 -0,1 8,5 11,6 8,0 5 3 7 4 NNE 1027,4 20 22 0,0
22.03.2019 18:00:00 18,2 -0,1 19,2 11,4 8,0 5 3 9 5 N 1027,0 18 60 0,0
22.03.2019 17:00:00 18,4 -0,5 21,7 11,0 8,0 6 3 16 9 NE 1027,2 20 60 0,0
22.03.2019 16:00:00 18,3 -0,1 21,6 10,5 8,0 6 3 16 9 NNW 1027,5 20 60 0,0
22.03.2019 15:00:00 17,9 0,5 22,7 9,7 8,0 8 5 16 8 NNW 1028,1 20 60 0,0
22.03.2019 14:00:00 17,0 0,6 22,1 8,8 8,0 4 2 19 10 N 1028,5 20 60 0,0
22.03.2019 13:00:00 16,2 1,1 20,5 8,0 8,0 5 3 14 8 WNW 1029,0 20 60 0,0
22.03.2019 12:00:00 14,6 0,4 17,8 7,3 8,0 4 2 15 8 W 1029,7 18 60 0,0
22.03.2019 11:00:00 12,6 0,7 14,5 6,7 8,0 8 4 16 8 SW 1030,4 20 60 0,0
22.03.2019 10:00:00 10,6 -0,3 10,3 6,5 8,0 5 3 10 5 SW 1030,9 20 60 0,0
22.03.2019 09:00:00 8,0 -0,3 4,6 6,4 8,0 7 4 12 7 SW 1031,5 20 60 0,0
22.03.2019 08:00:00 4,3 -0,1 -3,5 6,6 8,0 0 0 9 5 N 1031,7 20 60 0,0
22.03.2019 07:00:00 -1,8 -3,4 -4,7 6,9 8,0 2 1 4 2 S 1032,3 20 7 0,0
22.03.2019 06:00:00 -2,1 -3,5 -4,9 7,2 8,0 3 2 7 4 S 1032,1 20 0 0,0
22.03.2019 05:00:00 -2,3 -4,3 -4,8 7,6 8,0 0 0 6 3 N 1031,8 20 0 0,0
22.03.2019 04:00:00 -1,2 -3,6 -4,6 7,9 8,0 3 2 5 3 SSE 1031,4 20 0 0,0
22.03.2019 03:00:00 -0,8 -3,5 -3,6 8,2 8,0 3 1 6 3 S 1031,3 20 0 0,0
22.03.2019 02:00:00 0,2 -3,4 -2,5 8,5 8,0 3 1 7 4 SE 1031,3 20 0 0,0
22.03.2019 01:00:00 3,4 -1,6 -2,0 8,8 8,0 4 2 10 5 NW 1031,1 20 0 0,0
22.03.2019 00:00:00 3,7 -1,3 -1,6 9,1 8,0 4 2 7 4 N 1031,2 20 0 0,0
21.03.2019 23:00:00 6,0 -1,2 1,6 9,4 8,0 3 1 12 6 N 1031,1 20 0 0,0
21.03.2019 22:00:00 8,3 -0,5 5,9 9,7 8,0 8 4 16 9 NNE 1031,2 20 0 0,0
21.03.2019 21:00:00 9,4 -0,8 5,8 9,9 8,0 6 3 14 7 NNE 1031,0 20 0 0,0
21.03.2019 20:00:00 10,1 -0,4 8,6 10,1 8,0 9 5 18 10 N 1030,6 20 0 0,0
21.03.2019 19:00:00 11,9 -1,0 10,7 10,1 8,0 11 6 24 13 N 1030,1 20 21 0,0
21.03.2019 18:00:00 15,0 -2,0 15,3 10,0 8,0 14 8 32 17 N 1029,6 20 60 0,0
21.03.2019 17:00:00 15,9 -1,7 17,4 9,7 8,0 19 10 34 18 N 1029,3 20 60 0,0
21.03.2019 16:00:00 16,3 -2,8 19,5 9,2 8,0 13 7 29 16 NNE 1029,5 20 60 0,0
21.03.2019 15:00:00 15,8 -2,7 19,3 8,5 8,0 17 9 28 15 NNE 1029,8 19 60 0,0
21.03.2019 14:00:00 14,8 -3,6 17,9 7,9 8,0 14 8 32 17 NNE 1030,4 20 60 0,0
21.03.2019 13:00:00 13,4 -2,6 16,7 7,2 8,0 17 9 31 17 N 1031,3 20 60 0,0
21.03.2019 12:00:00 12,7 -3,6 15,2 6,6 8,0 17 9 34 18 N 1031,9 20 60 0,0
21.03.2019 11:00:00 11,2 -3,3 12,5 6,2 8,0 16 9 33 18 NNE 1032,5 20 60 0,0
21.03.2019 10:00:00 8,9 -1,8 7,9 6,0 8,0 17 9 31 17 NNE 1033,0 20 60 0,0
21.03.2019 09:00:00 6,2 -1,5 4,8 6,0 8,0 13 7 24 13 NNE 1033,3 20 60 0,0
21.03.2019 08:00:00 4,3 -1,5 0,8 6,1 8,0 8 4 16 9 N 1033,6 20 60 0,0
21.03.2019 07:00:00 2,0 -2,2 0,2 6,4 8,0 4 2 21 11 ENE 1033,7 20 5 0,0
21.03.2019 06:00:00 2,2 -2,3 1,5 6,6 8,0 14 8 28 15 NNE 1033,3 20 0 0,0
21.03.2019 05:00:00 2,7 -2,2 1,9 6,8 8,0 11 6 29 16 N 1033,1 20 0 0,0
21.03.2019 04:00:00 2,9 -2,0 2,0 7,1 8,0 20 11 29 15 N 1032,7 20 0 0,0
21.03.2019 03:00:00 3,2 -1,9 2,3 7,4 8,0 13 7 21 12 N 1033,1 20 0 0,0
21.03.2019 02:00:00 4,5 -1,9 3,0 7,7 8,0 12 6 24 13 N 1033,7 20 0 0,0
21.03.2019 01:00:00 3,6 -2,0 2,7 7,9 8,0 14 8 22 12 N 1033,8 20 0 0,0
21.03.2019 00:00:00 3,8 -2,0 2,7 8,2 8,0 11 6 18 10 N 1034,2 20 0 0,0
20.03.2019 23:00:00 4,7 -2,4 3,5 8,5 8,0 9 5 14 8 N 1034,2 20 0 0,0
20.03.2019 22:00:00 5,6 -2,3 3,7 8,7 8,0 6 4 16 9 NNE 1034,0 20 0 0,0
20.03.2019 21:00:00 6,4 -2,0 4,2 9,0 8,0 4 2 20 11 NNE 1033,9 20 0 0,0
20.03.2019 20:00:00 8,3 -1,8 7,4 9,1 8,0 11 6 26 14 NNE 1033,8 20 0 0,0
20.03.2019 19:00:00 10,1 -2,3 9,3 9,2 8,0 13 7 36 19 NNE 1033,1 20 19 0,0
20.03.2019 18:00:00 11,8 -1,7 12,3 9,1 8,0 16 8 39 21 NNE 1032,4 20 60 0,0
20.03.2019 17:00:00 12,8 -1,5 14,5 8,9 8,0 18 10 35 19 N 1031,8 20 60 0,0
20.03.2019 16:00:00 12,8 -1,2 15,4 8,5 8,0 19 10 38 20 NNE 1032,0 20 60 0,0
20.03.2019 15:00:00 12,6 -2,1 15,9 7,9 8,0 18 10 34 18 NNE 1032,4 20 60 0,0
20.03.2019 14:00:00 12,2 -1,4 16,2 7,3 8,0 16 9 32 18 N 1032,9 20 60 0,0
20.03.2019 13:00:00 11,7 -1,5 15,2 6,7 8,0 19 10 31 17 N 1033,7 20 60 0,0
20.03.2019 12:00:00 10,5 -1,6 13,2 6,1 8,0 16 8 27 15 N 1034,2 20 60 0,0
20.03.2019 11:00:00 9,0 -0,9 10,2 5,7 8,0 14 7 22 12 N 1034,6 20 60 0,0
20.03.2019 10:00:00 6,4 -0,1 6,8 5,4 8,0 13 7 21 12 N 1034,8 20 60 0,0
20.03.2019 09:00:00 4,8 -0,4 2,2 5,5 8,0 10 6 20 11 NNE 1034,8 20 60 0,0
20.03.2019 08:00:00 1,4 -0,2 -4,0 5,7 8,0 0 0 5 3 N 1034,9 20 60 0,0
20.03.2019 07:00:00 -3,4 -4,7 -5,8 6,0 8,1 4 2 7 4 SSE 1035,0 20 3 0,0
20.03.2019 06:00:00 -2,3 -4,2 -5,0 6,2 8,0 3 1 10 5 NNE 1034,2 20 0 0,0
20.03.2019 05:00:00 -0,2 -2,7 -4,6 6,5 8,0 6 3 10 5 NNE 1033,3 20 0 0,0
20.03.2019 04:00:00 -0,9 -3,1 -3,6 6,8 8,0 5 3 11 6 NNE 1033,2 20 0 0,0
20.03.2019 03:00:00 1,8 -2,0 0,3 7,0 8,0 6 3 16 9 NNE 1033,0 20 0 0,0
20.03.2019 02:00:00 2,2 -1,8 0,5 7,3 8,0 10 6 16 9 N 1033,0 20 0 0,0
20.03.2019 01:00:00 2,5 -1,7 0,5 7,7 8,1 6 3 19 11 NNE 1032,9 20 0 0,0
20.03.2019 00:00:00 3,0 -1,6 1,1 8,0 8,1 8 5 11 6 NNE 1032,7 20 0 0,0
19.03.2019 23:00:00 3,5 -1,7 0,2 8,2 8,1 7 4 14 7 NNE 1032,2 20 0 0,0
19.03.2019 22:00:00 3,3 -1,7 -2,7 8,6 8,1 6 4 11 6 NNE 1031,7 20 0 0,0
19.03.2019 21:00:00 3,2 -1,9 -1,6 8,9 8,1 4 2 7 4 NNE 1031,3 20 0 0,0
19.03.2019 20:00:00 5,5 -1,0 2,7 9,1 8,1 6 3 13 7 N 1030,5 20 0 0,0
19.03.2019 19:00:00 8,5 -1,6 6,8 9,2 8,1 8 5 17 9 NE 1029,5 20 18 0,0
19.03.2019 18:00:00 10,4 -2,3 10,7 9,1 8,1 11 6 25 14 NE 1028,4 20 56 0,0
19.03.2019 17:00:00 10,8 -1,9 11,0 8,9 8,1 11 6 25 14 NNE 1028,1 20 46 0,0
19.03.2019 16:00:00 11,6 -1,9 10,9 8,6 8,1 11 6 24 13 NNE 1027,7 20 37 0,0
19.03.2019 15:00:00 10,2 -1,5 11,4 8,1 8,1 8 4 26 14 NE 1027,7 20 34 0,0
19.03.2019 14:00:00 10,6 -0,3 11,5 7,5 8,1 9 5 24 13 NE 1027,9 20 42 0,0
19.03.2019 13:00:00 10,1 0,7 12,0 6,9 8,1 9 5 22 12 N 1028,2 20 49 0,0

tt = Température de l'air
td = dewpoint
tt 5cm = Température de l'air 5cm
tt -20cm = Température de l'air -20cm
tt -100cm = Température de l'air -100cm
ff = Vitesse du vent
fx = gusts
dd = Direction du vent
ppp = reduced air pressure
vv = visibility
sd = Ensoleillement
rr = Quantités de précipitations

stations d'obs. à proximité